Starlink 1394

operational
NORAD ID: 45679 Int'l Des: 2020-035 Owner: SPXS Country: US Constellation: starlink
LEOCIRCULARSTARLINK_TYPE

About Starlink 1394

Description loading...

Live Position

Loading 3D Globe...

Upcoming Passes

Altitude History

Altitude vs Time

uPlot chart will show altitude changes over time

Two-Line Element Set

1 45679U 20035Y 25340.75754082 -.00001209 00000-0 -62289-4 0 9998
2 45679 53.0535 113.8062 0001225 77.4390 282.6736 15.06396504304869
Epoch: Dec 6, 2025 • Age: 13 hours

Current Status

Altitude 550.0 km
Velocity 7.59 km/s
Sub-Earth Point 38.94°N, 65.5°E
Launch Date Jun 4, 2020
Age 5.5 years
Type internet

Technical Details

Classification Payload
Mass 260.00 kg
Dry Mass 248.00 kg
Total Mass 260.00 kg
Length 0.20 m
Diameter 2.80 m
Span 9.00 m
Shape Box + pan
Manufacturer SPXS
Bus Type Starlink
Phase Status In Orbit
Owner/State SPXS/US

Large Constellations

Loading constellations...